GSAT-19

Last updated on Tue Sep 22 2026 00:03:14 GMT+0000 (Coordinated Universal Time)

1 42747U 17031A 26264.49860406 .00000121 00000+0 00000+0 0 9995 2 42747 0.0429 96.2950 0003528 28.3902 103.0814 1.00270882 34118
UTC large
Height (km)
Speed (km/s)
/
Latitude / Longitude
Inclination (degrees)
Orbital Period (minutes)
Azimuth
Elevation
Range (km)
Doppler Factor

Next 0 passes for location: London (51.5072 / 0.1276)

No passes found over London.
GSAT-19